Back to catalog

SL-12 R/B(2)

AliveGEO
NORAD 18718·ROCKET BODY·🇷🇺 Russia

Launched Dec 27, 1987 from Baikonur Cosmodrome

Loading…

TLE

FreshSource: Space-Track

Epoch: Sep 14, 2026, 15:25 UTC

1 18718U 87109D   26257.64262179 -.00000245  00000-0  00000-0 0  9991
2 18718  10.7667 326.0717 0068439 281.6547 243.7977  1.00839097132960

Track SL-12 R/B(2) in real time with AllMySat

Download on the App Store